Weather History for Anchorage Merrill, AK

Change the Weather History Date:

Wednesday, April 2, 2014

  Actual Average Record
Temperature  
Mean Temperature 31 °F -  
Max Temperature 42 °F 37 °F 48 °F (2008)
Min Temperature 21 °F 21 °F 7 °F (2002)
Degree Days  
Heating Degree Days 34    
Moisture  
Dew Point 18 °F    
Average Humidity 59    
Maximum Humidity 78    
Minimum Humidity 40    
Precipitation  
Precipitation 0.00 in - - ()
Snow  
Snow 0.00 in - - ()
Snow Depth 6.00 in    
Sea Level Pressure  
Sea Level Pressure 29.87 in    
Wind  
Wind Speed 2 mph (NW)    
Max Wind Speed 7 mph    
Max Gust Speed -    
Visibility 10 miles    
Events      
Averages and records for this station are not official NWS values.
T = Trace of Precipitation, MM = Missing Value Source: NWS Daily Summary

Daily Weather History Graph

Daily Weather History Graph

Search for Another Location

Airport:

Trip Planner

Search our weather history database for the weather conditions in past years. The results will help you decide how hot, cold, wet, or windy it might be!

Date:

Astronomy

Apr. 02, 2014 Rise Set
Actual Time 7:18 AM AKDT 8:48 PM AKDT
Civil Twilight 6:33 AM AKDT 9:33 PM AKDT
Nautical Twilight 5:37 AM AKDT 10:30 PM AKDT
Astronomical Twilight 4:28 AM AKDT 11:40 PM AKDT
Moon 8:22 AM AKDT (4/2) 12:03 AM AKDT (4/2)
Length of Visible Light 14h 59m
Length of Day
13h 29m
Waxing Crescent, 11% of the Moon is Illuminated
Apr 2
Waxing Crescent
Apr 7
First Quarter
Apr 14
Full
Apr 21
Last Quarter
Apr 28
New

Hourly Weather History & Observations

Time (AKDT) Temp. Windchill Dew Point Humidity Pressure Visibility Wind Dir Wind Speed Gust Speed Precip Events Conditions
12:53 AM 26.1 °F - 18.0 °F 71% 29.90 in 10.0 mi Calm Calm - N/A   Clear
1:53 AM 26.1 °F - 18.0 °F 71% 29.90 in 10.0 mi Calm Calm - N/A   Clear
2:53 AM 24.1 °F - 16.0 °F 71% 29.90 in 10.0 mi Calm Calm - N/A   Clear
4:53 AM 21.9 °F - 16.0 °F 78% 29.90 in 10.0 mi Calm Calm - N/A   Clear
5:53 AM 23.0 °F 18.4 °F 16.0 °F 74% 29.90 in 10.0 mi ENE 3.5 mph - N/A   Clear
6:53 AM 21.0 °F - 15.1 °F 78% 29.91 in 10.0 mi Calm Calm - N/A   Clear
7:53 AM 21.9 °F - 15.1 °F 75% 29.91 in 10.0 mi Calm Calm - N/A   Clear
8:53 AM 25.0 °F - 16.0 °F 69% 29.90 in 10.0 mi Calm Calm - N/A   Clear
9:53 AM 30.0 °F - 16.0 °F 56% 29.91 in 10.0 mi Calm Calm - N/A   Clear
10:53 AM 33.1 °F - 19.9 °F 59% 29.91 in 10.0 mi Calm Calm - N/A   Clear
11:53 AM 36.0 °F 31.1 °F 19.9 °F 52% 29.90 in 10.0 mi NNW 5.8 mph - N/A   Clear
12:53 PM 37.9 °F 34.4 °F 17.1 °F 43% 29.90 in 10.0 mi North 4.6 mph - N/A   Clear
1:53 PM 36.0 °F 31.1 °F 17.1 °F 46% 29.90 in 10.0 mi WNW 5.8 mph - N/A   Clear
2:53 PM 39.0 °F 35.7 °F 18.0 °F 43% 29.88 in 10.0 mi WNW 4.6 mph - N/A   Clear
3:53 PM 41.0 °F 36.4 °F 19.0 °F 41% 29.86 in 10.0 mi WNW 6.9 mph - N/A   Clear
4:53 PM 41.0 °F 38.0 °F 18.0 °F 40% 29.85 in 10.0 mi WNW 4.6 mph - N/A   Clear
5:53 PM 39.9 °F 37.8 °F 17.1 °F 40% 29.83 in 10.0 mi WNW 3.5 mph - N/A   Partly Cloudy
6:53 PM 39.9 °F 36.7 °F 17.1 °F 40% 29.82 in 10.0 mi WNW 4.6 mph - N/A   Clear
7:53 PM 39.0 °F 36.8 °F 17.1 °F 41% 29.81 in 10.0 mi NW 3.5 mph - N/A   Clear
8:53 PM 36.0 °F - 21.0 °F 55% 29.81 in 10.0 mi Calm Calm - N/A   Clear
9:53 PM 34.0 °F 31.0 °F 21.9 °F 61% 29.82 in 10.0 mi East 3.5 mph - N/A   Partly Cloudy
10:53 PM 30.0 °F - 21.9 °F 72% 29.81 in 10.0 mi Calm Calm - N/A   Clear
11:53 PM 28.0 °F - 21.0 °F 75% 29.81 in 10.0 mi Calm Calm - N/A   Clear